カタログに戻る

COSMOS 2499 DEB

運用中PO
NORAD 55719·DEBRIS·🇷🇺 Russia

打ち上げ May 23, 2014 から Plesetsk Cosmodrome

Loading…

次のパス (今後24時間)

TLE

経年Source: Space-Track

元期: Sep 7, 2026, 12:40 UTC

1 55719U 14028AF  26250.52826265  .00004389  00000-0  14171-1 0  9992
2 55719  82.3774 182.1660 0218823 108.6540 253.8463 12.94187337172233

AllMySatでCOSMOS 2499 DEBをリアルタイム追跡

Download on the App Store